Doha, Qatar

9:09 PM AST on December 02, 2016 (GMT +0300)
Doha International

Weather History for OTBD - April, 2013

Change the Weather History Date:

Tuesday, April 9, 2013

  Actual Average Record
Temperature  
Mean Temperature 80 °F -  
Max Temperature 90 °F 87 °F 104 °F (2003)
Min Temperature 70 °F 69 °F 66 °F (2005)
Cooling Degree Days 15    
Growing Degree Days 30 (Base 50)    
Moisture  
Dew Point 63 °F    
Average Humidity 60    
Maximum Humidity 83    
Minimum Humidity 31    
Precipitation  
Precipitation 0.00 in - - ()
Sea Level Pressure  
Sea Level Pressure 29.81 in    
Wind  
Wind Speed 4 mph ()    
Max Wind Speed 13 mph    
Max Gust Speed -    
Visibility 6.3 miles    
Events      
Averages and records for this station are not official NWS values.
T = Trace of Precipitation, MM = Missing Value Source: Averaged Metar Reports

Daily Weather History Graph

Daily Weather History Graph

Search for Another Location

Airport or City:

Trip Planner

Search our weather history database for the weather conditions in past years. The results will help you decide how hot, cold, wet, or windy it might be!

Date:

Astronomy

Apr. 09, 2013 Rise Set
Actual Time 5:17 AM AST 5:53 PM AST
Civil Twilight 4:54 AM AST 6:16 PM AST
Nautical Twilight 4:26 AM AST 6:44 PM AST
Astronomical Twilight 3:59 AM AST 7:11 PM AST
Moon 4:22 AM AST (4/9) 5:07 PM AST (4/9)
Length of Visible Light 13h 22m
Length of Day
12h 36m
Waning Crescent, 1% of the Moon is Illuminated
Apr 9
Waning Crescent
Apr 10
New
Apr 18
First Quarter
Apr 25
Full
May 2
Last Quarter

Hourly Weather History & Observations

Time (AST) Temp. Heat Index Dew Point Humidity Pressure Visibility Wind Dir Wind Speed Gust Speed Precip Events Conditions
12:00 AM 75.2 °F - 64.4 °F 69% 29.77 in - Variable 2.3 mph - N/A   Clear
12:30 AM 73.4 °F - 64.4 °F 73% 29.77 in - Calm Calm - N/A   Clear
1:00 AM 73.4 °F - 64.4 °F 73% 29.77 in - Calm Calm - N/A   Clear
1:30 AM 73.4 °F - 64.4 °F 73% 29.77 in - Variable 2.3 mph - N/A   Clear
2:00 AM 73.4 °F - 64.4 °F 73% 29.77 in - Variable 2.3 mph - N/A   Clear
2:30 AM 73.4 °F - 64.4 °F 73% 29.77 in - ESE 3.5 mph - N/A   Clear
3:00 AM 73 °F - 65 °F 71% 29.80 in 6 mi 2.3 mph - -  
3:00 AM 73.4 °F - 66.2 °F 78% 29.80 in - Variable 2.3 mph - N/A   Clear
3:30 AM 71.6 °F - 64.4 °F 78% 29.80 in - SSE 3.5 mph - N/A   Clear
4:00 AM 73.4 °F - 66.2 °F 78% 29.80 in - Variable 2.3 mph - N/A   Clear
4:30 AM 71.6 °F - 66.2 °F 83% 29.80 in - Variable 1.2 mph - N/A   Clear
5:00 AM 71.6 °F - 64.4 °F 78% 29.83 in - Variable 1.2 mph - N/A   Clear
6:30 AM 73.4 °F - 66.2 °F 78% 29.83 in - SW 4.6 mph - N/A   Clear
7:00 AM 75.2 °F - 66.2 °F 73% 29.86 in - SSW 4.6 mph - N/A   Clear
7:30 AM 77.0 °F - 66.2 °F 69% 29.86 in - SSW 6.9 mph - N/A   Clear
8:00 AM 77.0 °F - 66.2 °F 69% 29.86 in - SSW 6.9 mph - N/A   Clear
8:30 AM 80.6 °F 82.3 °F 64.4 °F 58% 29.86 in - South 5.8 mph - N/A   Clear
9:00 AM 81 °F - 64 °F 46% 29.88 in 7 mi South 6.9 mph - -  
9:00 AM 80.6 °F 82.3 °F 64.4 °F 58% 29.86 in - South 6.9 mph - N/A   Clear
10:00 AM 86.0 °F 86.1 °F 60.8 °F 43% 29.86 in - SW 8.1 mph - N/A   Clear
10:30 AM 87.8 °F 87.1 °F 59.0 °F 38% 29.86 in - SW 6.9 mph - N/A   Clear
11:00 AM 89.6 °F 87.7 °F 55.4 °F 31% 29.86 in - SSW 5.8 mph - N/A   Clear
11:30 AM 89.6 °F 87.7 °F 55.4 °F 31% 29.83 in - South 8.1 mph - N/A   Clear
12:00 PM 91.4 °F 92.1 °F 62.6 °F 38% 29.83 in - ESE 11.5 mph - N/A   Clear
1:00 PM 87.8 °F 87.1 °F 59.0 °F 38% 29.80 in - SE 12.7 mph - N/A   Clear
1:30 PM 86.0 °F 85.4 °F 59.0 °F 40% 29.80 in - SE 12.7 mph - N/A   Clear
2:00 PM 87.8 °F 86.5 °F 57.2 °F 35% 29.80 in - SE 11.5 mph - N/A   Clear
2:30 PM 87.8 °F 86.5 °F 57.2 °F 35% 29.80 in - SE 10.4 mph - N/A   Clear
3:00 PM 87.8 °F 85.7 °F 53.6 °F 31% 29.77 in - East 11.5 mph - N/A   Clear
3:30 PM 86.0 °F - 51.8 °F 31% 29.77 in - ESE 12.7 mph - N/A   Clear
4:00 PM 84.2 °F 83.8 °F 59.0 °F 42% 29.77 in - East 10.4 mph - N/A   Clear
4:30 PM 84.2 °F 83.8 °F 59.0 °F 42% 29.77 in - ESE 9.2 mph - N/A   Clear
5:00 PM 82.4 °F 82.9 °F 60.8 °F 48% 29.77 in - ESE 9.2 mph - N/A   Clear
6:00 PM 80.6 °F 81.5 °F 60.8 °F 51% 29.80 in - ESE 9.2 mph - N/A   Clear
8:00 PM 78.8 °F - 66.2 °F 65% 29.80 in - East 5.8 mph - N/A   Clear
8:30 PM 77.0 °F - 68.0 °F 74% 29.83 in - East 4.6 mph - N/A   Clear
9:00 PM 77 °F - 68 °F 68% 29.85 in 6 mi 2.3 mph - -   Clear
9:00 PM 77.0 °F - 68.0 °F 74% 29.83 in - Variable 2.3 mph - N/A   Clear
9:30 PM 77.0 °F - 68.0 °F 74% 29.83 in - ESE 4.6 mph - N/A   Clear
10:00 PM 77.0 °F - 66.2 °F 69% 29.83 in - ESE 5.8 mph - N/A   Clear
10:30 PM 77.0 °F - 71.6 °F 83% 29.83 in - East 6.9 mph - N/A   Clear
11:00 PM 77.0 °F - 66.2 °F 69% 29.83 in - East 4.6 mph - N/A   Clear
11:30 PM 77.0 °F - 68.0 °F 74% 29.80 in - ESE 5.8 mph - N/A   Clear